CCA8565 ZSPD-ZGGG

Flight info

Callsign CCA8565
Flight time N/A
Altitude 36100
Route NXD91D NXD W131 AKDIM A470 DUBGO W134 ELNEX A599 PLT W19 OLPAB OLPAB5
Aircraft A320/M-SDE3FGHIRWY/LB1

Departure

Time 2026-05-08 06:33
Airport Shanghai Pudong International Airport (ZSPD)

Arrival

Time N/A
Airport Guangzhou Baiyun International Airport (ZGGG)
Time Latitude Longitude Altitude Speed Heading
2026-05-08 06:04 31.15116 121.79417 21 ft 0 kts 252°
2026-05-08 06:18 31.15120 121.79429 21 ft 2 kts 252°
2026-05-08 06:18 31.15124 121.79446 21 ft 2 kts 252°
2026-05-08 06:18 31.15129 121.79460 21 ft 0 kts 252°
2026-05-08 06:19 31.15132 121.79472 21 ft 2 kts 241°
2026-05-08 06:19 31.15141 121.79486 21 ft 2 kts 226°
2026-05-08 06:19 31.15152 121.79497 21 ft 2 kts 211°
2026-05-08 06:19 31.15166 121.79504 21 ft 2 kts 195°
2026-05-08 06:20 31.15180 121.79507 21 ft 2 kts 180°
2026-05-08 06:20 31.15195 121.79505 21 ft 1 kts 165°
2026-05-08 06:20 31.15201 121.79503 21 ft 1 kts 159°
2026-05-08 06:20 31.15203 121.79502 21 ft 0 kts 161°
2026-05-08 06:22 31.15201 121.79503 21 ft 1 kts 161°
2026-05-08 06:23 31.15187 121.79508 21 ft 3 kts 161°
2026-05-08 06:23 31.15157 121.79520 21 ft 5 kts 161°
2026-05-08 06:23 31.15109 121.79539 21 ft 8 kts 162°
2026-05-08 06:23 31.15046 121.79562 21 ft 10 kts 162°
2026-05-08 06:24 31.14970 121.79591 21 ft 12 kts 162°
2026-05-08 06:24 31.14881 121.79624 21 ft 14 kts 162°
2026-05-08 06:24 31.14781 121.79662 21 ft 15 kts 162°
2026-05-08 06:24 31.14672 121.79703 21 ft 17 kts 163°
2026-05-08 06:25 31.14554 121.79746 21 ft 18 kts 161°
2026-05-08 06:25 31.14429 121.79794 21 ft 19 kts 162°
2026-05-08 06:25 31.14300 121.79843 21 ft 20 kts 161°
2026-05-08 06:25 31.14200 121.79871 21 ft 9 kts 192°
2026-05-08 06:26 31.14158 121.79806 21 ft 11 kts 252°
2026-05-08 06:26 31.14128 121.79717 21 ft 10 kts 226°
2026-05-08 06:26 31.14053 121.79708 21 ft 12 kts 163°
2026-05-08 06:26 31.13965 121.79742 21 ft 14 kts 162°
2026-05-08 06:27 31.13867 121.79778 21 ft 15 kts 162°
2026-05-08 06:27 31.13762 121.79819 21 ft 16 kts 162°
2026-05-08 06:27 31.13648 121.79861 21 ft 17 kts 162°
2026-05-08 06:27 31.13526 121.79907 21 ft 18 kts 162°
2026-05-08 06:28 31.13399 121.79956 21 ft 19 kts 161°
2026-05-08 06:28 31.13264 121.80006 21 ft 20 kts 162°
2026-05-08 06:28 31.13128 121.80057 21 ft 21 kts 162°
2026-05-08 06:28 31.12986 121.80111 21 ft 21 kts 161°
2026-05-08 06:29 31.12850 121.80163 21 ft 11 kts 162°
2026-05-08 06:29 31.12785 121.80154 21 ft 10 kts 219°
2026-05-08 06:29 31.12754 121.80067 21 ft 12 kts 253°
2026-05-08 06:29 31.12738 121.80004 21 ft 0 kts 252°
2026-05-08 06:30 31.12736 121.79997 21 ft 1 kts 253°
2026-05-08 06:31 31.12730 121.79975 21 ft 3 kts 253°
2026-05-08 06:31 31.12723 121.79942 21 ft 4 kts 262°
2026-05-08 06:31 31.12728 121.79900 21 ft 5 kts 299°
2026-05-08 06:31 31.12759 121.79868 21 ft 0 kts 339°
2026-05-08 06:32 31.12768 121.79864 21 ft 6 kts 341°
2026-05-08 06:33 31.12973 121.79789 21 ft 67 kts 343°
2026-05-08 06:33 31.13660 121.79527 22 ft 135 kts 342°
2026-05-08 06:33 31.14727 121.79125 208 ft 174 kts 343°
2026-05-08 06:33 31.15868 121.78718 937 ft 173 kts 347°
2026-05-08 06:34 31.16970 121.78297 1818 ft 168 kts 347°
2026-05-08 06:34 31.18099 121.77847 2390 ft 179 kts 347°
2026-05-08 06:34 31.19326 121.77364 2859 ft 195 kts 346°
2026-05-08 06:34 31.20673 121.76833 3278 ft 217 kts 346°
2026-05-08 06:35 31.22175 121.76238 3751 ft 238 kts 345°
2026-05-08 06:35 31.23787 121.75591 4322 ft 255 kts 344°
2026-05-08 06:35 31.25501 121.74902 5124 ft 263 kts 343°
2026-05-08 06:35 31.27227 121.74206 6052 ft 265 kts 343°
2026-05-08 06:36 31.28947 121.73514 6957 ft 267 kts 343°
2026-05-08 06:36 31.30708 121.72805 7860 ft 270 kts 342°
2026-05-08 06:36 31.32425 121.71928 8710 ft 275 kts 326°
2026-05-08 06:36 31.33684 121.70258 9558 ft 281 kts 299°
2026-05-08 06:37 31.34220 121.68072 10398 ft 288 kts 276°
2026-05-08 06:37 31.34003 121.65715 10963 ft 303 kts 262°
2026-05-08 06:37 31.33554 121.63226 11376 ft 321 kts 261°
2026-05-08 06:37 31.33087 121.60611 11714 ft 339 kts 262°
2026-05-08 06:38 31.32627 121.57901 11945 ft 346 kts 262°
2026-05-08 06:38 31.32164 121.55121 11951 ft 346 kts 262°
2026-05-08 06:38 31.31705 121.52351 11948 ft 346 kts 262°
2026-05-08 06:38 31.31248 121.49597 11968 ft 346 kts 262°
2026-05-08 06:39 31.30795 121.46862 11953 ft 346 kts 262°
2026-05-08 06:39 31.30337 121.44119 11940 ft 345 kts 262°
2026-05-08 06:39 31.29880 121.41363 11970 ft 346 kts 262°
2026-05-08 06:39 31.29416 121.38573 11952 ft 346 kts 262°
2026-05-08 06:40 31.28945 121.35841 11973 ft 347 kts 259°
2026-05-08 06:40 31.28016 121.33238 11977 ft 352 kts 240°
2026-05-08 06:40 31.26429 121.31047 11958 ft 357 kts 224°
2026-05-08 06:40 31.24509 121.29177 11967 ft 358 kts 221°
2026-05-08 06:41 31.22558 121.27351 11967 ft 358 kts 221°
2026-05-08 06:41 31.20614 121.25528 11970 ft 358 kts 221°
2026-05-08 06:41 31.18677 121.23692 11972 ft 358 kts 222°
2026-05-08 06:41 31.16768 121.21870 11969 ft 358 kts 222°
2026-05-08 06:42 31.14838 121.20023 11971 ft 357 kts 222°
2026-05-08 06:42 31.12899 121.18166 12019 ft 361 kts 222°
2026-05-08 06:42 31.10960 121.16312 12576 ft 367 kts 222°
2026-05-08 06:42 31.08991 121.14410 13484 ft 364 kts 226°
2026-05-08 06:43 31.07370 121.12205 14286 ft 359 kts 240°
2026-05-08 06:43 31.06303 121.09644 15084 ft 353 kts 254°
2026-05-08 06:43 31.05607 121.06908 15909 ft 351 kts 256°
2026-05-08 06:43 31.04960 121.04212 16658 ft 350 kts 256°
2026-05-08 06:44 31.04302 121.01471 17349 ft 352 kts 256°
2026-05-08 06:44 31.03633 120.98717 17926 ft 355 kts 255°
2026-05-08 06:44 31.02956 120.95964 18566 ft 356 kts 255°
2026-05-08 06:44 31.02266 120.93172 19110 ft 360 kts 255°
2026-05-08 06:45 31.01581 120.90398 19656 ft 362 kts 255°
2026-05-08 06:45 31.00881 120.87575 20203 ft 365 kts 255°
2026-05-08 06:45 31.00172 120.84722 20717 ft 368 kts 255°
2026-05-08 06:45 30.99455 120.81845 21241 ft 371 kts 255°
2026-05-08 06:46 30.98740 120.78981 21746 ft 373 kts 255°
2026-05-08 06:46 30.98013 120.76063 22259 ft 376 kts 255°
2026-05-08 06:46 30.97287 120.73165 22764 ft 378 kts 255°
2026-05-08 06:46 30.96547 120.70202 23281 ft 380 kts 255°
2026-05-08 06:47 30.95812 120.67273 23793 ft 382 kts 255°
2026-05-08 06:47 30.95059 120.64278 24284 ft 385 kts 255°
2026-05-08 06:47 30.94309 120.61298 24780 ft 387 kts 255°
2026-05-08 06:47 30.93553 120.58301 25259 ft 389 kts 255°
2026-05-08 06:48 30.92792 120.55287 25707 ft 392 kts 255°
2026-05-08 06:48 30.92019 120.52219 26173 ft 394 kts 255°
2026-05-08 06:48 30.91255 120.49185 26450 ft 400 kts 255°
2026-05-08 06:48 30.90296 120.46110 26602 ft 410 kts 247°
2026-05-08 06:49 30.88786 120.43258 26891 ft 418 kts 236°
2026-05-08 06:49 30.86770 120.40770 27261 ft 426 kts 226°
2026-05-08 06:49 30.84400 120.38683 27607 ft 431 kts 221°
2026-05-08 06:49 30.81932 120.36645 27967 ft 433 kts 221°
2026-05-08 06:50 30.79497 120.34644 28390 ft 431 kts 221°
2026-05-08 06:50 30.77054 120.32629 28847 ft 429 kts 221°
2026-05-08 06:50 30.74609 120.30608 29247 ft 429 kts 221°
2026-05-08 06:50 30.72181 120.28606 29695 ft 427 kts 221°
2026-05-08 06:51 30.69771 120.26620 30098 ft 425 kts 221°
2026-05-08 06:51 30.67364 120.24641 30414 ft 426 kts 221°
2026-05-08 06:51 30.64930 120.22646 30733 ft 426 kts 221°
2026-05-08 06:51 30.62543 120.20689 31063 ft 425 kts 222°
2026-05-08 06:52 30.60123 120.18706 31393 ft 424 kts 222°
2026-05-08 06:52 30.57725 120.16743 31744 ft 423 kts 222°
2026-05-08 06:52 30.55313 120.14771 32038 ft 423 kts 223°
2026-05-08 06:52 30.52917 120.12812 32340 ft 422 kts 223°
2026-05-08 06:53 30.50514 120.10850 32642 ft 422 kts 223°
2026-05-08 06:53 30.48119 120.08894 32946 ft 421 kts 223°
2026-05-08 06:53 30.45730 120.06944 33257 ft 420 kts 223°
2026-05-08 06:53 30.43297 120.05068 33536 ft 422 kts 220°
2026-05-08 06:54 30.40767 120.03318 33805 ft 424 kts 219°
2026-05-08 06:54 30.38214 120.01611 34067 ft 423 kts 219°
2026-05-08 06:54 30.35685 119.99922 34342 ft 422 kts 219°
2026-05-08 06:54 30.33157 119.98237 34587 ft 422 kts 219°
2026-05-08 06:55 30.30586 119.96523 34810 ft 422 kts 219°
2026-05-08 06:55 30.28064 119.94840 34991 ft 423 kts 220°
2026-05-08 06:55 30.25492 119.93128 35156 ft 424 kts 219°
2026-05-08 06:55 30.22938 119.91431 35327 ft 424 kts 220°
2026-05-08 06:56 30.20380 119.89732 35485 ft 425 kts 220°
2026-05-08 06:56 30.17836 119.88042 35665 ft 425 kts 220°
2026-05-08 06:56 30.15265 119.86337 35848 ft 425 kts 220°
2026-05-08 06:56 30.12695 119.84634 36017 ft 425 kts 220°
2026-05-08 06:57 30.10132 119.82938 36137 ft 426 kts 220°
2026-05-08 06:57 30.07577 119.81245 36267 ft 426 kts 220°
2026-05-08 06:57 30.02406 119.77802 36272 ft 427 kts 220°
2026-05-08 06:58 29.97294 119.74344 36281 ft 427 kts 220°
2026-05-08 06:58 29.92156 119.70909 36282 ft 426 kts 220°
2026-05-08 06:59 29.87026 119.67481 36278 ft 427 kts 220°
2026-05-08 06:59 29.82895 119.64426 36281 ft 422 kts 224°